Simultaneous Nadir Overpasses (SNOs) Predictions

Prediction of SNOs between AQUA and NOAA-19 Satellite Orbit:

Table of predicted SNOs for the next 14.0 days since TLE Epoch: 7/24/2020
Index Date (AQUA) Time (AQUA) Lat,Lon (AQUA) SZA (AQUA ) Date (NOAA-19) Time (NOAA-19) Lat,Lon (NOAA-19) SZA (NOAA-19 ) Distance(km) Time Diff (sec)
1 07/25/2020 22:27:06 79.62, 175.55 61.61 07/25/2020 22:26:00 79.64, 175.48 61.66 2.78 66
2 07/25/2020 23:16:33 -79.66, -17.11 118.32 07/25/2020 23:17:04 -79.67, -16.98 118.34 2.67 31
3 07/28/2020 04:50:18 79.67, 79.41 62.20 07/28/2020 04:50:17 79.64, 79.46 62.17 3.42 1
4 07/30/2020 10:24:01 -79.65, 176.11 117.31 07/30/2020 10:23:38 -79.63, 176.10 117.31 2.54 23
5 07/30/2020 11:13:28 79.65, -16.20 62.70 07/30/2020 11:14:33 79.66, -16.27 62.70 2.43 65
6 08/01/2020 15:57:45 79.63, -87.13 63.21 08/01/2020 15:56:51 79.62, -87.26 63.24 2.83 54
7 08/01/2020 16:47:12 -79.67, 80.22 116.72 08/01/2020 16:47:54 -79.64, 80.23 116.76 2.89 42
8 08/03/2020 21:31:25 -79.50, 10.34 116.41 08/03/2020 21:30:18 -79.41, 7.40 116.17 60.84 67
9 08/03/2020 22:20:56 79.64, 176.95 63.82 08/03/2020 22:21:07 79.64, 176.98 63.81 0.90 11
10 08/06/2020 03:54:39 -79.63, -86.37 115.60 08/06/2020 03:54:26 -79.64, -86.23 115.60 3.13 13
